Regional Weather Roundup
Issued by NWS

Home | Current Version | Previous Version | Text Only | Print | Product List | Glossary On
Versions: 1 2 3 4 5 6 7 8 9 10 11 12 13 14 15 16 17 18 19 20 21 22 23 24 25 26 27 28 29 30 31 32 33 34 35 36 37 38 39 40 41 42 43 44 45 46 47 48 49 50
189
ASUS43 KFSD 221910
RWRSD

WEATHER ROUNDUP FOR SOUTH DAKOTA
NATIONAL WEATHER SERVICE SIOUX FALLS SD
100 PM CST THU FEB 22 2018

NOTE: "FAIR" INDICATES FEW OR NO CLOUDS BELOW 12,000 FEET WITH NO
SIGNIFICANT WEATHER AND/OR OBSTRUCTIONS TO VISIBILITY.


SDZ001>005-009-010-012>017-222000-
NORTHWEST AND NORTH CENTRAL SOUTH DAKOTA

CITY           SKY/WX    TMP DP  RH WIND       PRES   REMARKS
BUFFALO          N/A      5  -4  66 CALM      30.05F
FAITH            N/A      2  -3  80 N5        30.17F WCI  -8
MOBRIDGE       MOSUNNY   15   8  73 S8        30.24F WCI   4
$$

SDZ012>016-024>037-041>051-057-063-072>074-222000-
SOUTHWEST AND SOUTH CENTRAL SOUTH DAKOTA

CITY           SKY/WX    TMP DP  RH WIND       PRES   REMARKS
RAPID CTY ARPT MOSUNNY   10   4  76 E3        30.09F
PIERRE         CLOUDY    20  16  84 SE12      30.23F WCI   8
CUSTER         SUNNY     26   7  44 E8        29.93F WCI  18
ELLSWORTH AFB  MOSUNNY   12   5  73 E6        30.08F WCI   2
PHILIP         CLOUDY    16   9  74 CALM      30.18F
PINE RIDGE     CLOUDY    24  18  77 SW9       30.07F WCI  14
SPEARFISH        N/A     21   9  58 CALM      30.04F
WINNER         LGT SNOW  25  20  81 SE9       30.22F VSB 3/4 WCI  15
$$

SDZ004>011-016>023-039-040-222000-
NORTHEAST SOUTH DAKOTA

CITY           SKY/WX    TMP DP  RH WIND       PRES   REMARKS
ABERDEEN       CLOUDY    24  17  74 S10       30.36F WCI  14
WATERTOWN      CLOUDY    24  19  81 SE9       30.33F WCI  14
BROOKINGS      CLOUDY    24  19  81 SE8       30.35F WCI  15
SISSETON         N/A     20  14  77 SE14      30.39F WCI   7
$$

SDZ017-020-022-023-036>040-048>070-222000-
SOUTHEAST SOUTH DAKOTA

CITY           SKY/WX    TMP DP  RH WIND       PRES   REMARKS
SIOUX FALLS    LGT SNOW  23  18  81 E7        30.34F WCI  15
HURON          LGT SNOW  24  19  81 SE12      30.34F WCI  13
CHAMBERLAIN    LGT SNOW  24  23  93 E9        30.26F WCI  15
MITCHELL       LGT SNOW  22  19  89 SE7       30.35F VSB 3/4 WCI  13
YANKTON        CLOUDY    23  18  81 E10       30.31F WCI  12
$$

ABBREVIATIONS USED IN REMARKS
   TC - TEMPERATURE IN CELSIUS
  WCI - WIND CHILL INDEX
   HX - HEAT INDEX
  VSB - VISIBILITY





USA.gov is the U.S. government's official web portal to all federal, state and local government web resources and services.